| time (UTC) | temp C | wind direction | speed KPH | gust KPH | rain 1hr cm | rain 24hr cm | rain mn cm | humidity % | barometer mb |
| 20260503071746 | 10 | 185 | 3.2 | 3.2 | 0.00 | 0.00 | 0.00 | 40 | 1008.9 |
| 20260503071243 | 10 | 167 | 1.6 | 1.6 | 0.00 | 0.00 | 0.00 | 40 | 1008.9 |
| 20260503070740 | 10 | 156 | 0.0 | 0.0 | 0.00 | 0.00 | 0.00 | 41 | 1008.9 |
| 20260503070238 | 10 | 179 | 0.0 | 0.0 | 0.00 | 0.00 | 0.00 | 40 | 1009.2 |
| 20260503060209 | 10 | 111 | 0.0 | 0.0 | 0.00 | 0.00 | 0.00 | 41 | 1009.6 |
| 20260503054655 | 10 | 185 | 3.2 | 3.2 | 0.00 | 0.00 | 0.00 | 39 | 1009.6 |
| 20260503054153 | 11 | 192 | 1.6 | 1.6 | 0.00 | 0.00 | 0.00 | 40 | 1009.6 |
| 20260503053651 | 11 | 234 | 0.0 | 0.0 | 0.00 | 0.00 | 0.00 | 40 | 1009.9 |
| 20260503053149 | 11 | 237 | 1.6 | 1.6 | 0.00 | 0.00 | 0.00 | 39 | 1009.9 |
| 20260503052645 | 11 | 237 | 3.2 | 3.2 | 0.00 | 0.00 | 0.00 | 39 | 1009.6 |
| 20260503052141 | 11 | 265 | 4.8 | 6.4 | 0.00 | 0.00 | 0.00 | 38 | 1009.9 |
| 20260503051637 | 11 | 122 | 1.6 | 1.6 | 0.00 | 0.00 | 0.00 | 39 | 1009.9 |
| 20260503051135 | 11 | 148 | 4.8 | 4.8 | 0.00 | 0.00 | 0.00 | 38 | 1009.9 |
| 20260503050631 | 11 | 102 | 0.0 | 0.0 | 0.00 | 0.00 | 0.00 | 38 | 1009.9 |
| 20260503050128 | 11 | 166 | 3.2 | 3.2 | 0.00 | 0.00 | 0.00 | 39 | 1009.9 |
| 20260503045626 | 11 | 193 | 0.0 | 0.0 | 0.00 | 0.00 | 0.00 | 39 | 1009.9 |
| 20260503045123 | 11 | 120 | 3.2 | 3.2 | 0.00 | 0.00 | 0.00 | 40 | 1009.9 |
| 20260503044619 | 11 | 180 | 3.2 | 3.2 | 0.00 | 0.00 | 0.00 | 39 | 1009.6 |
| 20260503044117 | 11 | 138 | 1.6 | 1.6 | 0.00 | 0.00 | 0.00 | 39 | 1009.9 |
| 20260503043613 | 11 | 84 | 3.2 | 3.2 | 0.00 | 0.00 | 0.00 | 40 | 1010.3 |
| 20260503043110 | 11 | 126 | 3.2 | 3.2 | 0.00 | 0.00 | 0.00 | 39 | 1010.3 |
| 20260503042607 | 11 | 136 | 0.0 | 0.0 | 0.00 | 0.00 | 0.00 | 40 | 1010.3 |
| 20260503042103 | 11 | 174 | 3.2 | 3.2 | 0.00 | 0.00 | 0.00 | 40 | 1010.3 |
| 20260503041559 | 11 | 154 | 3.2 | 3.2 | 0.00 | 0.00 | 0.00 | 41 | 1010.3 |
| 20260503041057 | 11 | 144 | 1.6 | 1.6 | 0.00 | 0.00 | 0.00 | 42 | 1010.6 |
| 20260503040554 | 10 | 171 | 0.0 | 0.0 | 0.00 | 0.00 | 0.00 | 41 | 1010.3 |
| 20260503040051 | 10 | 102 | 1.6 | 1.6 | 0.00 | 0.00 | 0.00 | 41 | 1010.6 |
| 20260503035548 | 10 | 266 | 1.6 | 1.6 | 0.00 | 0.00 | 0.00 | 43 | 1010.6 |
| 20260503035046 | 9 | 265 | 0.0 | 0.0 | 0.00 | 0.00 | 0.00 | 42 | 1010.6 |
| 20260503034543 | 8 | 265 | 0.0 | 0.0 | 0.00 | 0.00 | 0.00 | 45 | 1010.6 |
| 20260503034040 | 8 | 265 | 0.0 | 0.0 | 0.00 | 0.00 | 0.00 | 51 | 1010.6 |
| 20260503033537 | 8 | 265 | 0.0 | 0.0 | 0.00 | 0.00 | 0.00 | 48 | 1010.9 |
| 20260503033035 | 7 | 265 | 0.0 | 0.0 | 0.00 | 0.00 | 0.00 | 49 | 1010.6 |
| 20260503032533 | 6 | 264 | 0.0 | 0.0 | 0.00 | 0.00 | 0.00 | 52 | 1010.9 |
| 20260503032031 | 6 | 265 | 0.0 | 0.0 | 0.00 | 0.00 | 0.00 | 56 | 1010.9 |
| 20260503031528 | 6 | 265 | 0.0 | 0.0 | 0.00 | 0.00 | 0.00 | 56 | 1010.9 |
| 20260503031025 | 6 | 265 | 0.0 | 0.0 | 0.00 | 0.00 | 0.00 | 56 | 1011.3 |
| 20260503030521 | 6 | 265 | 0.0 | 0.0 | 0.00 | 0.00 | 0.00 | 57 | 1010.9 |
| 20260503030019 | 5 | 265 | 0.0 | 0.0 | 0.00 | 0.00 | 0.00 | 56 | 1011.3 |
| 20260503025515 | 5 | 265 | 0.0 | 0.0 | 0.00 | 0.00 | 0.00 | 56 | 1011.3 |
| 20260503025013 | 5 | 264 | 0.0 | 0.0 | 0.00 | 0.00 | 0.00 | 56 | 1010.9 |
| 20260503024509 | 5 | 264 | 0.0 | 0.0 | 0.00 | 0.00 | 0.00 | 57 | 1011.3 |
| 20260503024007 | 5 | 265 | 0.0 | 0.0 | 0.00 | 0.00 | 0.00 | 56 | 1010.9 |
| 20260503023503 | 5 | 265 | 0.0 | 0.0 | 0.00 | 0.00 | 0.00 | 56 | 1010.9 |
| 20260503023000 | 5 | 265 | 0.0 | 0.0 | 0.00 | 0.00 | 0.00 | 56 | 1011.3 |
| 20260503022455 | 6 | 265 | 0.0 | 0.0 | 0.00 | 0.00 | 0.00 | 55 | 1011.3 |
| 20260503021951 | 6 | 265 | 0.0 | 0.0 | 0.00 | 0.00 | 0.00 | 54 | 1011.3 |
| 20260503021448 | 6 | 265 | 0.0 | 0.0 | 0.00 | 0.00 | 0.00 | 54 | 1011.3 |
| 20260503020945 | 6 | 265 | 0.0 | 0.0 | 0.00 | 0.00 | 0.00 | 53 | 1011.3 |
| 20260503020443 | 6 | 265 | 0.0 | 0.0 | 0.00 | 0.00 | 0.00 | 53 | 1011.3 |
| 20260503015939 | 6 | 265 | 0.0 | 0.0 | 0.00 | 0.00 | 0.00 | 53 | 1011.3 |
| 20260503015436 | 6 | 265 | 0.0 | 0.0 | 0.00 | 0.00 | 0.00 | 51 | 1011.3 |
| 20260503014932 | 7 | 265 | 0.0 | 0.0 | 0.00 | 0.00 | 0.00 | 51 | 1010.9 |
| 20260503014429 | 7 | 265 | 0.0 | 0.0 | 0.00 | 0.00 | 0.00 | 51 | 1010.9 |
| 20260503013927 | 7 | 265 | 0.0 | 0.0 | 0.00 | 0.00 | 0.00 | 48 | 1011.3 |
| 20260503013424 | 8 | 265 | 0.0 | 0.0 | 0.00 | 0.00 | 0.00 | 46 | 1010.9 |
| 20260503012921 | 8 | 265 | 0.0 | 0.0 | 0.00 | 0.00 | 0.00 | 43 | 1010.9 |
| 20260503012419 | 9 | 265 | 0.0 | 0.0 | 0.00 | 0.00 | 0.00 | 42 | 1010.9 |
| 20260503011915 | 10 | 265 | 0.0 | 0.0 | 0.00 | 0.00 | 0.00 | 41 | 1010.9 |
| 20260503011412 | 10 | 265 | 0.0 | 0.0 | 0.00 | 0.00 | 0.00 | 39 | 1010.9 |
| 20260503010909 | 11 | 265 | 0.0 | 0.0 | 0.00 | 0.00 | 0.00 | 37 | 1010.9 |
| 20260503010406 | 11 | 265 | 0.0 | 0.0 | 0.00 | 0.00 | 0.00 | 35 | 1010.9 |
| 20260503005903 | 12 | 265 | 0.0 | 0.0 | 0.00 | 0.00 | 0.00 | 34 | 1011.3 |
| 20260503005400 | 12 | 265 | 0.0 | 0.0 | 0.00 | 0.00 | 0.00 | 33 | 1010.9 |
| 20260503004856 | 12 | 232 | 0.0 | 0.0 | 0.00 | 0.00 | 0.00 | 32 | 1011.3 |
| 20260503004354 | 13 | 232 | 0.0 | 0.0 | 0.00 | 0.00 | 0.00 | 32 | 1010.9 |
| 20260503003851 | 13 | 232 | 1.6 | 1.6 | 0.00 | 0.00 | 0.00 | 31 | 1011.3 |
| 20260503003348 | 13 | 240 | 0.0 | 0.0 | 0.00 | 0.00 | 0.00 | 30 | 1010.6 |
| 20260503002845 | 13 | 204 | 3.2 | 3.2 | 0.00 | 0.00 | 0.00 | 31 | 1010.9 |
| 20260503002342 | 14 | 222 | 3.2 | 3.2 | 0.00 | 0.00 | 0.00 | 30 | 1010.9 |
| 20260503001838 | 14 | 277 | 4.8 | 4.8 | 0.00 | 0.00 | 0.00 | 29 | 1010.9 |
| 20260503001335 | 14 | 276 | 3.2 | 3.2 | 0.00 | 0.00 | 0.00 | 30 | 1011.3 |
| 20260503000832 | 15 | 208 | 3.2 | 3.2 | 0.00 | 0.00 | 0.00 | 29 | 1011.3 |
| 20260503000330 | 15 | 252 | 3.2 | 3.2 | 0.00 | 0.00 | 0.00 | 28 | 1011.3 |
| 20260502235827 | 15 | 26 | 3.2 | 3.2 | 0.00 | 0.00 | 0.00 | 28 | 1010.9 |
| 20260502235324 | 15 | 272 | 3.2 | 3.2 | 0.00 | 0.00 | 0.00 | 27 | 1011.3 |
| 20260502234820 | 15 | 184 | 6.4 | 8.0 | 0.00 | 0.00 | 0.00 | 28 | 1011.3 |
| 20260502234317 | 15 | 138 | 3.2 | 3.2 | 0.00 | 0.00 | 0.00 | 27 | 1011.3 |
| 20260502233814 | 16 | 248 | 1.6 | 1.6 | 0.00 | 0.00 | 0.00 | 26 | 1011.3 |
| 20260502233310 | 16 | 283 | 3.2 | 3.2 | 0.00 | 0.00 | 0.00 | 27 | 1011.3 |
| 20260502232807 | 15 | 198 | 1.6 | 1.6 | 0.00 | 0.00 | 0.00 | 27 | 1011.6 |
| 20260502232305 | 15 | 104 | 4.8 | 4.8 | 0.00 | 0.00 | 0.00 | 27 | 1011.3 |
| 20260502231800 | 16 | 184 | 9.7 | 11.3 | 0.00 | 0.00 | 0.00 | 26 | 1011.6 |
| 20260502231258 | 16 | 222 | 3.2 | 3.2 | 0.00 | 0.00 | 0.00 | 25 | 1011.6 |
| 20260502230756 | 16 | 282 | 4.8 | 4.8 | 0.00 | 0.00 | 0.00 | 25 | 1011.6 |
| 20260502230254 | 16 | 265 | 3.2 | 3.2 | 0.00 | 0.00 | 0.00 | 25 | 1011.6 |
| 20260502225750 | 16 | 285 | 3.2 | 3.2 | 0.00 | 0.00 | 0.00 | 26 | 1011.6 |
| 20260502225247 | 16 | 174 | 3.2 | 3.2 | 0.00 | 0.00 | 0.00 | 26 | 1012.1 |
| 20260502224743 | 16 | 320 | 4.8 | 4.8 | 0.00 | 0.00 | 0.00 | 27 | 1011.6 |
| 20260502224240 | 16 | 141 | 4.8 | 4.8 | 0.00 | 0.00 | 0.00 | 26 | 1011.6 |
| 20260502223738 | 16 | 187 | 3.2 | 3.2 | 0.00 | 0.00 | 0.00 | 25 | 1011.6 |
| 20260502223236 | 16 | 280 | 3.2 | 3.2 | 0.00 | 0.00 | 0.00 | 26 | 1012.1 |
| 20260502222733 | 17 | 312 | 0.0 | 0.0 | 0.00 | 0.00 | 0.00 | 23 | 1011.6 |
| 20260502222230 | 16 | 280 | 8.0 | 9.7 | 0.00 | 0.00 | 0.00 | 25 | 1011.6 |
| 20260502221725 | 16 | 282 | 4.8 | 4.8 | 0.00 | 0.00 | 0.00 | 26 | 1012.1 |
| 20260502221223 | 16 | 287 | 3.2 | 3.2 | 0.00 | 0.00 | 0.00 | 25 | 1012.1 |
| 20260502220719 | 16 | 196 | 3.2 | 3.2 | 0.00 | 0.00 | 0.00 | 26 | 1012.1 |
| 20260502220215 | 17 | 288 | 8.0 | 9.7 | 0.00 | 0.00 | 0.00 | 25 | 1012.1 |
| 20260502215712 | 17 | 204 | 9.7 | 9.7 | 0.00 | 0.00 | 0.00 | 24 | 1012.4 |
| 20260502215209 | 16 | 335 | 3.2 | 3.2 | 0.00 | 0.00 | 0.00 | 25 | 1012.4 |
| 20260502214707 | 16 | 18 | 4.8 | 4.8 | 0.00 | 0.00 | 0.00 | 26 | 1012.4 |
| 20260502214204 | 16 | 278 | 3.2 | 3.2 | 0.00 | 0.00 | 0.00 | 26 | 1012.4 |
| 20260502213701 | 15 | 236 | 8.0 | 8.0 | 0.00 | 0.00 | 0.00 | 26 | 1012.4 |
| 20260502213158 | 16 | 274 | 4.8 | 4.8 | 0.00 | 0.00 | 0.00 | 27 | 1012.4 |
| 20260502212656 | 16 | 132 | 11.3 | 11.3 | 0.00 | 0.00 | 0.00 | 26 | 1012.1 |
| 20260502212154 | 15 | 160 | 3.2 | 3.2 | 0.00 | 0.00 | 0.00 | 29 | 1012.7 |
| 20260502211649 | 15 | 271 | 4.8 | 4.8 | 0.00 | 0.00 | 0.00 | 27 | 1012.7 |
| 20260502211147 | 16 | 263 | 3.2 | 3.2 | 0.00 | 0.00 | 0.00 | 27 | 1012.7 |
| 20260502210644 | 15 | 209 | 8.0 | 8.0 | 0.00 | 0.00 | 0.00 | 26 | 1012.7 |
| 20260502210141 | 16 | 300 | 3.2 | 3.2 | 0.00 | 0.00 | 0.00 | 26 | 1012.7 |
| 20260502205638 | 16 | 264 | 9.7 | 9.7 | 0.00 | 0.00 | 0.00 | 26 | 1012.7 |
| 20260502205135 | 16 | 271 | 3.2 | 3.2 | 0.00 | 0.00 | 0.00 | 26 | 1013.1 |
| 20260502204632 | 16 | 150 | 3.2 | 3.2 | 0.00 | 0.00 | 0.00 | 24 | 1013.1 |
| 20260502204129 | 16 | 182 | 9.7 | 9.7 | 0.00 | 0.00 | 0.00 | 26 | 1013.1 |
| 20260502203626 | 16 | 214 | 9.7 | 11.3 | 0.00 | 0.00 | 0.00 | 26 | 1013.1 |
| 20260502203124 | 15 | 306 | 4.8 | 4.8 | 0.00 | 0.00 | 0.00 | 27 | 1013.1 |
| 20260502202619 | 15 | 261 | 6.4 | 6.4 | 0.00 | 0.00 | 0.00 | 27 | 1013.1 |
| 20260502202117 | 15 | 202 | 8.0 | 9.7 | 0.00 | 0.00 | 0.00 | 27 | 1013.1 |
| 20260502201613 | 15 | 196 | 9.7 | 9.7 | 0.00 | 0.00 | 0.00 | 27 | 1013.1 |
| 20260502201110 | 16 | 199 | 4.8 | 4.8 | 0.00 | 0.00 | 0.00 | 26 | 1013.4 |
| 20260502200606 | 16 | 153 | 8.0 | 8.0 | 0.00 | 0.00 | 0.00 | 28 | 1013.4 |
| 20260502200104 | 15 | 224 | 4.8 | 4.8 | 0.00 | 0.00 | 0.00 | 27 | 1013.4 |
| 20260502195602 | 15 | 329 | 3.2 | 3.2 | 0.00 | 0.00 | 0.00 | 28 | 1013.7 |
| 20260502195057 | 15 | 264 | 6.4 | 8.0 | 0.00 | 0.00 | 0.00 | 27 | 1013.7 |
| 20260502194554 | 15 | 54 | 6.4 | 6.4 | 0.00 | 0.00 | 0.00 | 27 | 1013.7 |
| 20260502194050 | 15 | 189 | 3.2 | 3.2 | 0.00 | 0.00 | 0.00 | 28 | 1014.1 |
| 20260502193548 | 15 | 231 | 8.0 | 9.7 | 0.00 | 0.00 | 0.00 | 26 | 1014.1 |
| 20260502193044 | 15 | 266 | 9.7 | 11.3 | 0.00 | 0.00 | 0.00 | 27 | 1014.1 |
| 20260502192540 | 15 | 8 | 8.0 | 9.7 | 0.00 | 0.00 | 0.00 | 26 | 1014.1 |
| 20260502192037 | 14 | 283 | 3.2 | 3.2 | 0.00 | 0.00 | 0.00 | 28 | 1014.1 |
| 20260502191534 | 14 | 193 | 1.6 | 1.6 | 0.00 | 0.00 | 0.00 | 28 | 1014.1 |
| 20260502191032 | 14 | 108 | 6.4 | 6.4 | 0.00 | 0.00 | 0.00 | 26 | 1014.1 |
| 20260502190529 | 15 | 170 | 9.7 | 11.3 | 0.00 | 0.00 | 0.00 | 26 | 1014.1 |
| 20260502190026 | 14 | 216 | 3.2 | 3.2 | 0.00 | 0.00 | 0.00 | 27 | 1014.4 |
| 20260502185521 | 14 | 294 | 6.4 | 6.4 | 0.00 | 0.00 | 0.00 | 27 | 1014.4 |
| 20260502185018 | 14 | 266 | 8.0 | 9.7 | 0.00 | 0.00 | 0.00 | 27 | 1014.4 |
| 20260502184514 | 15 | 204 | 6.4 | 6.4 | 0.00 | 0.00 | 0.00 | 26 | 1014.8 |
| 20260502184010 | 14 | 265 | 3.2 | 3.2 | 0.00 | 0.00 | 0.00 | 27 | 1014.4 |
| 20260502183507 | 13 | 266 | 6.4 | 8.0 | 0.00 | 0.00 | 0.00 | 28 | 1014.8 |
| 20260502183001 | 13 | 258 | 6.4 | 6.4 | 0.00 | 0.00 | 0.00 | 27 | 1014.8 |
| 20260502182457 | 13 | 306 | 4.8 | 4.8 | 0.00 | 0.00 | 0.00 | 27 | 1014.8 |
| 20260502181954 | 14 | 250 | 4.8 | 4.8 | 0.00 | 0.00 | 0.00 | 26 | 1014.8 |
| 20260502181452 | 15 | 258 | 4.8 | 4.8 | 0.00 | 0.00 | 0.00 | 26 | 1014.4 |
| 20260502180950 | 14 | 310 | 3.2 | 3.2 | 0.00 | 0.00 | 0.00 | 24 | 1015.1 |
| 20260502180447 | 14 | 234 | 3.2 | 3.2 | 0.00 | 0.00 | 0.00 | 26 | 1014.8 |
| 20260502170406 | 12 | 318 | 8.0 | 9.7 | 0.00 | 0.00 | 0.00 | 30 | 1015.5 |
| 20260502163849 | 12 | 328 | 8.0 | 9.7 | 0.00 | 0.00 | 0.00 | 30 | 1015.5 |
| 20260502163346 | 13 | 311 | 9.7 | 9.7 | 0.00 | 0.00 | 0.00 | 29 | 1015.9 |
| 20260502162843 | 14 | 120 | 4.8 | 6.4 | 0.00 | 0.00 | 0.00 | 27 | 1015.9 |
| 20260502162340 | 13 | 312 | 4.8 | 4.8 | 0.00 | 0.00 | 0.00 | 29 | 1015.9 |
| 20260502161837 | 13 | 296 | 6.4 | 6.4 | 0.00 | 0.00 | 0.00 | 29 | 1016.2 |
| 20260502161333 | 13 | 300 | 4.8 | 6.4 | 0.00 | 0.00 | 0.00 | 30 | 1016.2 |
| 20260502160831 | 13 | 17 | 6.4 | 6.4 | 0.00 | 0.00 | 0.00 | 31 | 1016.2 |
| 20260502160330 | 12 | 226 | 6.4 | 6.4 | 0.00 | 0.00 | 0.00 | 31 | 1016.6 |
| 20260502152259 | 12 | 293 | 6.4 | 6.4 | 0.00 | 0.00 | 0.00 | 33 | 1016.6 |
| 20260502151756 | 12 | 264 | 3.2 | 3.2 | 0.00 | 0.00 | 0.00 | 34 | 1016.6 |
| 20260502151253 | 11 | 311 | 4.8 | 4.8 | 0.00 | 0.00 | 0.00 | 33 | 1016.6 |
| 20260502150751 | 11 | 163 | 9.7 | 9.7 | 0.00 | 0.00 | 0.00 | 34 | 1016.6 |
| 20260502150247 | 11 | 293 | 3.2 | 3.2 | 0.00 | 0.00 | 0.00 | 34 | 1016.9 |
| 20260502130636 | 7 | 228 | 4.8 | 6.4 | 0.00 | 0.00 | 0.00 | 54 | 1017.6 |
| 20260502130134 | 6 | 277 | 0.0 | 0.0 | 0.00 | 0.00 | 0.00 | 56 | 1017.6 |
| 20260502123620 | 3 | 282 | 0.0 | 0.0 | 0.00 | 0.00 | 0.00 | 72 | 1017.6 |
| 20260502123115 | 2 | 282 | 0.0 | 0.0 | 0.00 | 0.00 | 0.00 | 81 | 1017.6 |
| 20260502122612 | 2 | 282 | 0.0 | 0.0 | 0.00 | 0.00 | 0.00 | 84 | 1017.6 |
| 20260502122109 | 1 | 282 | 0.0 | 0.0 | 0.00 | 0.00 | 0.00 | 85 | 1017.6 |
| 20260502121607 | 1 | 282 | 0.0 | 0.0 | 0.00 | 0.00 | 0.00 | 86 | 1017.6 |
| 20260502121105 | 0 | 282 | 0.0 | 0.0 | 0.00 | 0.00 | 0.00 | 86 | 1017.2 |
| 20260502120600 | 0 | 282 | 0.0 | 0.0 | 0.00 | 0.00 | 0.00 | 87 | 1017.6 |
| 20260502115556 | 0 | 282 | 0.0 | 0.0 | 0.00 | 0.00 | 0.00 | 88 | 1017.6 |
| 20260502115051 | 0 | 282 | 0.0 | 0.0 | 0.00 | 0.00 | 0.00 | 88 | 1017.2 |
| 20260502114547 | 0 | 282 | 0.0 | 0.0 | 0.00 | 0.00 | 0.00 | 89 | 1017.2 |
| 20260502114044 | -1 | 282 | 0.0 | 0.0 | 0.00 | 0.00 | 0.00 | 88 | 1017.2 |
| 20260502113542 | -1 | 282 | 0.0 | 0.0 | 0.00 | 0.00 | 0.00 | 89 | 1017.2 |
| 20260502113041 | -1 | 282 | 0.0 | 0.0 | 0.00 | 0.00 | 0.00 | 89 | 1017.2 |
| 20260502112538 | -1 | 282 | 0.0 | 0.0 | 0.00 | 0.00 | 0.00 | 89 | 1017.6 |
| 20260502112035 | -1 | 282 | 0.0 | 0.0 | 0.00 | 0.00 | 0.00 | 89 | 1017.6 |
| 20260502111532 | -1 | 282 | 0.0 | 0.0 | 0.00 | 0.00 | 0.00 | 90 | 1017.6 |
| 20260502111030 | -1 | 282 | 0.0 | 0.0 | 0.00 | 0.00 | 0.00 | 90 | 1017.2 |
| 20260502110527 | -1 | 282 | 0.0 | 0.0 | 0.00 | 0.00 | 0.00 | 90 | 1017.2 |
| 20260502110025 | -1 | 282 | 0.0 | 0.0 | 0.00 | 0.00 | 0.00 | 90 | 1017.2 |
| 20260502105522 | -1 | 282 | 0.0 | 0.0 | 0.00 | 0.00 | 0.00 | 89 | 1017.6 |
| 20260502105020 | -1 | 282 | 0.0 | 0.0 | 0.00 | 0.00 | 0.00 | 89 | 1016.9 |
| 20260502104516 | -1 | 282 | 0.0 | 0.0 | 0.00 | 0.00 | 0.00 | 89 | 1017.2 |
| 20260502104014 | -1 | 282 | 0.0 | 0.0 | 0.00 | 0.00 | 0.00 | 89 | 1017.2 |
| 20260502103511 | -1 | 282 | 0.0 | 0.0 | 0.00 | 0.00 | 0.00 | 89 | 1016.9 |
| 20260502103009 | -1 | 282 | 0.0 | 0.0 | 0.00 | 0.00 | 0.00 | 89 | 1017.2 |
| 20260502102505 | -1 | 282 | 0.0 | 0.0 | 0.00 | 0.00 | 0.00 | 89 | 1017.2 |
| 20260502102003 | -1 | 282 | 0.0 | 0.0 | 0.00 | 0.00 | 0.00 | 88 | 1017.2 |
| 20260502101500 | -1 | 282 | 0.0 | 0.0 | 0.00 | 0.00 | 0.00 | 88 | 1016.9 |
| 20260502100959 | -1 | 282 | 0.0 | 0.0 | 0.00 | 0.00 | 0.00 | 88 | 1017.2 |
| 20260502100457 | -1 | 282 | 0.0 | 0.0 | 0.00 | 0.00 | 0.00 | 88 | 1017.2 |
| 20260502091431 | -2 | 282 | 0.0 | 0.0 | 0.00 | 0.00 | 0.00 | 88 | 1016.9 |
| 20260502090928 | -2 | 282 | 0.0 | 0.0 | 0.00 | 0.00 | 0.00 | 88 | 1017.2 |
| 20260502090426 | -2 | 282 | 0.0 | 0.0 | 0.00 | 0.00 | 0.00 | 88 | 1017.2 |